Location: Bílinka
(49.3579°N, 14.3767°E)
Time: 01:33:46
(UTC+00:00)

CZ-4 R/B - Pass Details

Date: 28 January 2023
Orbit: 526 x 586 km, 97.7° (Epoch: 31 March)

Event Time Altitude Azimuth Distance (km) Brightness Sun altitude
Rises 18:09:27 0° 170° (S) 2,812 4.9 -22.4°
Reaches altitude 10° 18:11:37 10° 172° (S) 1,913 4.0 -22.7°
Maximum altitude 18:15:47 73° 257° (WSW) 617 1.6 -23.4°
Drops below altitude 10° 18:19:55 10° 343° (NNW) 1,906 4.2 -24.1°
Sets 18:22:04 0° 345° (NNW) 2,801 5.1 -24.4°
